sat.trackr.live / text

‹ back to catalog

STARLINK-11117 [DTC]

NORAD 59761 · 2024-091J

PAYLOAD ACTIVE UNKNOWN

§ Identity

Operator
Country
US
Launch date
2024-05-14
Launch site
AFWTR
Launch vehicle
Mass (kg)
RCS (m²)

Purposes: comms

External: N2YO · Heavens-Above · Gunter

§ Orbital elements

Epoch: 2026-05-25T03:32:59.271072Z

Period
91.74 min
Inclination
53.1582°
Eccentricity
0.0001099
Mean motion
15.69719082 rev/d
Perigee alt
359.0 km
Apogee alt
360.4 km
Semi-major
6,737.8 km
B*
5.1702e-5
RAAN
189.2234°
Arg perigee
100.7847°
Mean anomaly
259.3295°
Rev number
11,752

§ Raw data

STARLINK-11117 [DTC]1 59761U 24091J   26145.14790823  .00005682  00000+0  51702-4 0  99952 59761  53.1582 189.2234 0001099 100.7847 259.3295 15.69719082117528

JSON: /api/v1/satellites/59761 · /tle

For live sub-satellite position, see the globe view (requires WebGL).

§ Visibility from observer

Set your observer location to see the next 7 days of passes ≥ 10°. The values pass through the URL so the page stays shareable.

No JS? Fill the form by hand. The geolocation button needs JavaScript.